DW4129 Weather Reports


Display with metric or nautical units.
time (UTC)temp
F
wind
direction
speed
MPH
gust
MPH
rain 1hr
in
rain 24hr
in
rain mn
in
humidity
%
barometer
mb
20260505050558 60 323 1.0 5.0 0.00 0.00 0.00 62 1014.9
20260505041609 61 308 2.0 5.0 0.00 0.00 0.00 57 1014.7
20260505041057 61 244 1.0 4.0 0.00 0.00 0.00 57 1014.7
20260505040557 61 269 1.0 3.0 0.00 0.00 0.00 56 1014.7
20260505040058 60 13 1.0 4.0 0.00 0.00 0.00 56 1014.6
20260505035556 60 207 1.0 4.0 0.00 0.00 0.00 58 1014.8
20260505035056 60 159 1.0 4.0 0.00 0.00 0.00 56 1014.8
20260505034556 61 191 1.0 6.0 0.00 0.00 0.00 55 1014.8
20260505034056 61 279 1.0 7.0 0.00 0.00 0.00 54 1014.8
20260505033556 61 275 1.0 7.0 0.00 0.00 0.00 56 1014.7
20260505033057 61 229 0.0 5.0 0.00 0.00 0.00 55 1014.7
20260505032555 60 219 0.0 3.0 0.00 0.00 0.00 55 1014.8
20260505032055 60 0 1.0 4.0 0.00 0.00 0.00 56 1014.7
20260505031608 60 231 1.0 4.0 0.00 0.00 0.00 58 1014.7
20260505031055 60 320 1.0 4.0 0.00 0.00 0.00 59 1014.7
20260505030556 60 261 2.0 4.0 0.00 0.00 0.00 58 1014.7
20260505030108 60 220 1.0 3.0 0.00 0.00 0.00 61 1014.7
20260505025557 59 226 1.0 3.0 0.00 0.00 0.00 59 1014.7
20260505025059 59 240 1.0 3.0 0.00 0.00 0.00 60 1014.7
20260505024618 59 167 0.0 3.0 0.00 0.00 0.00 63 1014.7
20260505024056 60 115 1.0 3.0 0.00 0.00 0.00 61 1014.7
20260505023556 59 211 1.0 3.0 0.00 0.00 0.00 58 1014.7
20260505023104 59 0 0.0 5.0 0.00 0.00 0.00 64 1014.7
20260505022559 59 0 1.0 5.0 0.00 0.00 0.00 63 1014.7
20260505022057 59 140 0.0 2.0 0.00 0.00 0.00 63 1014.6
20260505021601 59 162 0.0 2.0 0.00 0.00 0.00 63 1014.6
20260505021056 59 30 0.0 2.0 0.00 0.00 0.00 63 1014.6
20260505020555 59 350 0.0 3.0 0.00 0.00 0.00 63 1014.5
20260505020105 59 232 0.0 3.0 0.00 0.00 0.00 63 1014.5
20260505015557 59 211 0.0 2.0 0.00 0.00 0.00 62 1014.5
20260505015057 59 0 0.0 2.0 0.00 0.00 0.00 65 1014.5
20260505014606 60 242 0.0 2.0 0.00 0.00 0.00 64 1014.4
20260505014100 60 252 0.0 2.0 0.00 0.00 0.00 63 1014.4
20260505013556 60 210 0.0 2.0 0.00 0.00 0.00 63 1014.3
20260505013056 60 0 0.0 2.0 0.00 0.00 0.00 62 1014.2
20260505012557 61 210 0.0 2.0 0.00 0.00 0.00 61 1014.1
20260505012056 61 0 0.0 2.0 0.00 0.00 0.00 60 1014.0
20260505011557 61 0 0.0 2.0 0.00 0.00 0.00 60 1014.0
20260505011056 61 210 0.0 2.0 0.00 0.00 0.00 59 1014.0
20260505010558 62 210 0.0 2.0 0.00 0.00 0.00 57 1014.0
20260505010113 62 210 0.0 2.0 0.00 0.00 0.00 57 1014.0
20260505005556 63 0 0.0 2.0 0.00 0.00 0.00 56 1014.0
20260505005057 63 240 0.0 2.0 0.00 0.00 0.00 55 1013.8
20260505004557 64 240 0.0 2.0 0.00 0.00 0.00 54 1013.8
20260505004056 64 240 0.0 2.0 0.00 0.00 0.00 52 1013.8
20260505003556 65 0 0.0 2.0 0.00 0.00 0.00 52 1013.7
20260505003104 65 0 0.0 2.0 0.00 0.00 0.00 51 1013.7
20260505002556 65 240 0.0 1.0 0.00 0.00 0.00 50 1013.6
20260505002056 66 205 0.0 2.0 0.00 0.00 0.00 50 1013.6
20260505001556 66 0 0.0 2.0 0.00 0.00 0.00 49 1013.6
20260505001056 67 0 0.0 2.0 0.00 0.00 0.00 49 1013.6
20260505000556 67 0 0.0 2.0 0.00 0.00 0.00 47 1013.5
20260505000100 68 239 0.0 2.0 0.00 0.00 0.00 46 1013.6
20260504235557 69 0 0.0 2.0 0.00 0.00 0.00 46 1013.4
20260504235056 69 238 0.0 5.0 0.00 0.00 0.00 46 1013.3
20260504234555 71 0 0.0 5.0 0.00 0.00 0.00 44 1013.3
20260504234056 71 0 2.0 5.0 0.00 0.00 0.00 43 1013.3
20260504233600 71 230 1.0 3.0 0.00 0.00 0.00 44 1013.2
20260504233102 71 242 1.0 4.0 0.00 0.00 0.00 41 1013.2
20260504232557 72 240 1.0 5.0 0.00 0.00 0.00 40 1013.2
20260504232056 72 254 1.0 5.0 0.00 0.00 0.00 43 1013.2
20260504231557 72 271 1.0 6.0 0.00 0.00 0.00 41 1013.2
20260504231056 73 281 2.0 6.0 0.00 0.00 0.00 41 1013.2
20260504230556 74 270 1.0 11.0 0.00 0.00 0.00 38 1013.1
20260504230113 74 217 3.0 11.0 0.00 0.00 0.00 39 1013.2
20260504225557 74 215 2.0 6.0 0.00 0.00 0.00 37 1013.2
20260504225101 75 251 2.0 8.0 0.00 0.00 0.00 37 1013.1
20260504224612 75 170 1.0 8.0 0.00 0.00 0.00 36 1013.1
20260504224056 75 261 2.0 7.0 0.00 0.00 0.00 36 1013.1
20260504223557 75 200 2.0 7.0 0.00 0.00 0.00 35 1013.1
20260504223112 76 250 1.0 4.0 0.00 0.00 0.00 33 1013.1
20260504222556 76 242 2.0 8.0 0.00 0.00 0.00 36 1013.2
20260504222055 76 293 2.0 9.0 0.00 0.00 0.00 43 1013.1
20260504221555 76 242 3.0 9.0 0.00 0.00 0.00 35 1013.1
20260504221058 76 261 3.0 7.0 0.00 0.00 0.00 35 1013.2
20260504220557 76 234 3.0 7.0 0.00 0.00 0.00 35 1013.1
20260504220059 77 268 2.0 8.0 0.00 0.00 0.00 35 1013.2
20260504215557 76 205 3.0 8.0 0.00 0.00 0.00 38 1013.3
20260504215056 77 261 3.0 7.0 0.00 0.00 0.00 35 1013.3
20260504214557 77 213 3.0 7.0 0.00 0.00 0.00 34 1013.2
20260504214100 77 258 3.0 10.0 0.00 0.00 0.00 37 1013.2
20260504213556 77 250 2.0 11.0 0.00 0.00 0.00 39 1013.3
20260504213103 76 248 3.0 12.0 0.00 0.00 0.00 35 1013.2
20260504212600 77 244 6.0 12.0 0.00 0.00 0.00 34 1013.2
20260504212059 77 96 2.0 8.0 0.00 0.00 0.00 36 1013.2
20260504211600 77 261 4.0 8.0 0.00 0.00 0.00 36 1013.2
20260504211056 77 240 2.0 8.0 0.00 0.00 0.00 36 1013.1
20260504210559 77 195 3.0 8.0 0.00 0.00 0.00 35 1013.1
20260504210104 77 222 4.0 9.0 0.00 0.00 0.00 36 1013.0
20260504205556 77 150 3.0 9.0 0.00 0.00 0.00 37 1013.1
20260504205055 77 245 3.0 9.0 0.00 0.00 0.00 34 1013.2
20260504204556 76 238 3.0 10.0 0.00 0.00 0.00 36 1013.2
20260504204059 77 275 4.0 10.0 0.00 0.00 0.00 35 1013.3
20260504203556 77 273 2.0 9.0 0.00 0.00 0.00 36 1013.3
20260504203056 77 236 3.0 9.0 0.00 0.00 0.00 34 1013.3
20260504202556 77 334 2.0 10.0 0.00 0.00 0.00 34 1013.3
20260504202100 77 100 3.0 10.0 0.00 0.00 0.00 35 1013.3
20260504201559 77 279 3.0 10.0 0.00 0.00 0.00 36 1013.5
20260504201056 76 259 3.0 11.0 0.00 0.00 0.00 34 1013.4
20260504200556 76 260 5.0 11.0 0.00 0.00 0.00 34 1013.4
20260504200104 77 274 4.0 11.0 0.00 0.00 0.00 34 1013.5
20260504195555 77 202 4.0 11.0 0.00 0.00 0.00 33 1013.5
20260504195056 77 207 4.0 10.0 0.00 0.00 0.00 34 1013.7
20260504194556 77 244 2.0 11.0 0.00 0.00 0.00 36 1013.7
20260504194053 76 319 5.0 11.0 0.00 0.00 0.00 35 1013.8
20260504193556 76 241 4.0 8.0 0.00 0.00 0.00 34 1013.9
20260504193056 76 168 4.0 9.0 0.00 0.00 0.00 32 1014.0
20260504192555 76 267 3.0 9.0 0.00 0.00 0.00 34 1014.1
20260504192058 76 208 5.0 8.0 0.00 0.00 0.00 34 1014.2
20260504191608 76 311 5.0 8.0 0.00 0.00 0.00 34 1014.2
20260504191056 76 202 3.0 6.0 0.00 0.00 0.00 33 1014.2
20260504190559 76 242 3.0 7.0 0.00 0.00 0.00 32 1014.3
20260504190055 76 250 2.0 7.0 0.00 0.00 0.00 36 1014.3
20260504185556 75 246 4.0 11.0 0.00 0.00 0.00 34 1014.4
20260504185057 75 215 5.0 11.0 0.00 0.00 0.00 33 1014.4
20260504184555 75 254 4.0 9.0 0.00 0.00 0.00 33 1014.4
20260504184056 75 221 4.0 9.0 0.00 0.00 0.00 33 1014.3
20260504183556 76 251 4.0 8.0 0.00 0.00 0.00 35 1014.4
20260504183054 75 190 4.0 9.0 0.00 0.00 0.00 34 1014.5
20260504182559 74 201 3.0 9.0 0.00 0.00 0.00 33 1014.5
20260504182056 75 245 5.0 10.0 0.00 0.00 0.00 31 1014.6
20260504181556 75 211 3.0 10.0 0.00 0.00 0.00 34 1014.7
20260504181056 75 324 5.0 10.0 0.00 0.00 0.00 33 1014.8
20260504180557 75 261 2.0 7.0 0.00 0.00 0.00 35 1014.9
20260504180054 74 207 2.0 7.0 0.00 0.00 0.00 34 1014.9
20260504175556 74 205 4.0 8.0 0.00 0.00 0.00 33 1014.9
20260504175051 74 342 2.0 8.0 0.00 0.00 0.00 33 1015.0
20260504174556 74 233 3.0 7.0 0.00 0.00 0.00 34 1014.9
20260504174054 75 334 1.0 10.0 0.00 0.00 0.00 33 1015.0
20260504173552 74 257 3.0 10.0 0.00 0.00 0.00 37 1015.2
20260504173058 73 161 5.0 10.0 0.00 0.00 0.00 32 1015.3
20260504172552 73 267 3.0 9.0 0.00 0.00 0.00 38 1015.3
20260504172055 72 243 4.0 9.0 0.00 0.00 0.00 34 1015.3
20260504171604 73 350 4.0 10.0 0.00 0.00 0.00 34 1015.4
20260504171055 72 240 2.0 10.0 0.00 0.00 0.00 35 1015.4
20260504170555 72 309 4.0 10.0 0.00 0.00 0.00 40 1015.6
20260504160104 69 298 3.0 10.0 0.00 0.00 0.00 39 1016.4
20260504151054 68 292 3.0 7.0 0.00 0.00 0.00 44 1016.6
20260504150555 68 256 2.0 6.0 0.00 0.00 0.00 41 1016.6
20260504141054 63 224 3.0 4.0 0.00 0.00 0.00 55 1016.5
20260504140555 64 249 2.0 4.0 0.00 0.00 0.00 55 1016.5
20260504130554 58 325 1.0 3.0 0.00 0.00 0.00 72 1016.6
20260504120124 45 184 0.0 2.0 0.00 0.00 0.00 87 1016.8
20260504110556 40 0 0.0 2.0 0.00 0.00 0.00 89 1017.1
20260504100554 39 0 0.0 0.0 0.00 0.00 0.00 88 1016.8
20260504081557 41 147 0.0 2.0 0.00 0.00 0.00 82 1016.5
20260504081052 41 163 0.0 2.0 0.00 0.00 0.00 81 1016.5
20260504080551 41 0 0.0 2.0 0.00 0.00 0.00 81 1016.5